FW9783 Weather Reports


Display with metric or nautical units.
time (UTC)temp
F
wind
direction
speed
MPH
gust
MPH
rain 1hr
in
rain 24hr
in
rain mn
in
humidity
%
barometer
mb
20260510104807 62 27 1.0 5.0 0.00 0.00 0.00 76 1021.7
20260510104804 62 33 1.0 5.0 0.00 0.00 0.00 76 1016.8
20260510104304 62 41 0.0 3.0 0.00 0.00 0.00 76 1021.4
20260510103804 62 127 0.0 25.0 0.00 0.00 0.00 76 1016.6
20260510103800 62 104 0.0 0.0 0.00 0.00 0.00 76 1021.5
20260510103304 62 61 0.0 12.0 0.00 0.00 0.00 76 1016.7
20260510103257 62 48 0.0 0.0 0.00 0.00 0.00 76 1021.6
20260510102804 62 89 2.0 12.0 0.00 0.00 0.00 76 1016.7
20260510102752 62 69 3.0 11.0 0.00 0.00 0.00 76 1021.6
20260510102306 62 106 0.0 6.0 0.00 0.00 0.00 76 1016.6
20260510102248 62 120 0.0 0.0 0.00 0.00 0.00 76 1021.5
20260510101804 62 106 0.0 6.0 0.00 0.00 0.00 76 1016.6
20260510101745 62 103 0.0 0.0 0.00 0.00 0.00 76 1021.5
20260510101304 62 123 0.0 6.0 0.00 0.00 0.00 75 1017.0
20260510101244 62 148 0.0 1.0 0.00 0.00 0.00 75 1021.9
20260510100804 62 65 0.0 7.0 0.00 0.00 0.00 75 1016.6
20260510100739 62 70 0.0 3.0 0.00 0.00 0.00 75 1021.5
20260510100304 62 8 0.0 14.0 0.00 0.00 0.00 75 1016.7
20260510100238 62 74 0.0 6.0 0.00 0.00 0.00 75 1021.6
20260510095804 62 92 1.0 14.0 0.00 0.00 0.00 76 1016.2
20260510095732 62 59 1.0 7.0 0.00 0.00 0.00 76 1020.9
20260510095306 62 87 1.0 14.0 0.00 0.00 0.00 76 1016.2
20260510095228 62 88 0.0 0.0 0.00 0.00 0.00 76 1020.9
20260510094804 62 83 0.0 13.0 0.00 0.00 0.00 76 1016.6
20260510094727 62 94 0.0 13.0 0.00 0.00 0.00 76 1021.4
20260510094304 62 102 0.0 9.0 0.00 0.00 0.00 76 1016.4
20260510094223 62 107 0.0 9.0 0.00 0.00 0.00 76 1021.3
20260510093804 62 78 0.0 8.0 0.00 0.00 0.00 76 1016.1
20260510093719 62 72 0.0 8.0 0.00 0.00 0.00 76 1021.1
20260510093304 62 147 0.0 7.0 0.00 0.00 0.00 75 1016.2
20260510093216 62 168 0.0 1.0 0.00 0.00 0.00 75 1021.1
20260510092804 62 107 0.0 6.0 0.00 0.00 0.00 75 1015.9
20260510092712 62 94 0.0 3.0 0.00 0.00 0.00 75 1020.7
20260510092306 62 106 0.0 13.0 0.00 0.00 0.00 75 1015.7
20260510092208 62 106 0.0 1.0 0.00 0.00 0.00 75 1020.4
20260510091804 62 93 0.0 13.0 0.00 0.00 0.00 75 1015.4
20260510091704 62 111 0.0 6.0 0.00 0.00 0.00 75 1020.2
20260510091304 62 205 1.0 13.0 0.00 0.00 0.00 75 1015.1
20260510091200 62 109 0.0 2.0 0.00 0.00 0.00 75 1019.5
20260510090804 62 75 2.0 10.0 0.00 0.00 0.00 74 1015.0
20260510090657 62 72 4.0 9.0 0.00 0.00 0.00 74 1019.6
20260510090303 62 125 2.0 14.0 0.00 0.00 0.00 74 1015.1
20260510090154 62 164 3.0 9.0 0.00 0.00 0.00 74 1019.8
20260510085649 62 178 4.0 9.0 0.00 0.00 0.00 74 1020.1
20260510085306 62 129 1.0 18.0 0.00 0.00 0.00 73 1015.2
20260510085144 62 136 0.0 2.0 0.00 0.00 0.00 73 1019.7
20260510084803 62 142 0.0 18.0 0.00 0.00 0.00 73 1015.0
20260510084641 62 145 0.0 8.0 0.00 0.00 0.00 73 1019.8
20260510084303 62 100 1.0 17.0 0.00 0.00 0.00 73 1015.1
20260510084138 62 175 0.0 14.0 0.00 0.00 0.00 73 1019.8
20260510083804 62 102 3.0 23.0 0.00 0.00 0.00 72 1014.9
20260510083634 62 110 5.0 16.0 0.00 0.00 0.00 72 1019.6
20260510083304 63 121 2.0 23.0 0.00 0.00 0.00 72 1015.2
20260510083131 63 134 1.0 14.0 0.00 0.00 0.00 72 1019.8
20260510082804 63 102 1.0 23.0 0.00 0.00 0.00 72 1014.9
20260510082627 63 131 0.0 23.0 0.00 0.00 0.00 71 1019.6
20260510082306 63 124 1.0 23.0 0.00 0.00 0.00 71 1014.8
20260510082123 63 151 0.0 8.0 0.00 0.00 0.00 71 1019.5
20260510081804 63 90 3.0 23.0 0.00 0.00 0.00 71 1015.0
20260510081623 63 83 6.0 23.0 0.00 0.00 0.00 71 1019.6
20260510081120 64 120 0.0 3.0 0.00 0.00 0.00 70 1019.7
20260510080804 64 64 1.0 24.0 0.00 0.00 0.00 70 1014.9
20260510080619 64 103 0.0 9.0 0.00 0.00 0.00 70 1019.4
20260510080116 65 134 7.0 22.0 0.00 0.00 0.00 69 1019.3
20260510075804 65 93 0.0 15.0 0.00 0.00 0.00 69 1014.5
20260510075614 65 232 0.0 3.0 0.00 0.00 0.00 70 1019.2
20260510075306 65 178 2.0 13.0 0.00 0.00 0.00 70 1014.3
20260510075110 65 105 0.0 11.0 0.00 0.00 0.00 70 1018.8
20260510074607 66 120 0.0 3.0 0.00 0.00 0.00 69 1018.6
20260510074103 66 165 0.0 2.0 0.00 0.00 0.00 69 1018.4
20260510073804 66 78 2.0 17.0 0.00 0.00 0.00 68 1013.7
20260510073559 66 170 5.0 17.0 0.00 0.00 0.00 68 1018.4
20260510073304 67 152 0.0 10.0 0.00 0.00 0.00 68 1013.6
20260510073056 67 111 0.0 10.0 0.00 0.00 0.00 68 1018.3
20260510072804 67 63 1.0 7.0 0.00 0.00 0.00 68 1013.9
20260510072553 67 110 1.0 7.0 0.00 0.00 0.00 68 1018.6
20260510072306 67 98 0.0 12.0 0.00 0.00 0.00 68 1013.9
20260510072048 67 32 0.0 3.0 0.00 0.00 0.00 68 1018.5
20260510071803 67 134 0.0 12.0 0.00 0.00 0.00 68 1013.8
20260510071545 67 84 0.0 2.0 0.00 0.00 0.00 68 1018.2
20260510071304 67 149 0.0 3.0 0.00 0.00 0.00 68 1013.8
20260510071043 67 54 0.0 2.0 0.00 0.00 0.00 68 1018.4
20260510070804 67 114 0.0 6.0 0.00 0.00 0.00 68 1014.1
20260510070540 67 124 0.0 0.0 0.00 0.00 0.00 68 1018.4
20260510070304 67 112 0.0 6.0 0.00 0.00 0.00 68 1013.9
20260510070037 68 181 0.0 0.0 0.00 0.00 0.00 68 1018.3
20260510065533 68 68 1.0 6.0 0.00 0.00 0.00 67 1018.8
20260510065306 68 65 0.0 5.0 0.00 0.00 0.00 67 1014.2
20260510065029 68 103 0.0 0.0 0.00 0.00 0.00 67 1018.9
20260510064804 68 145 0.0 5.0 0.00 0.00 0.00 67 1014.4
20260510064526 68 83 0.0 1.0 0.00 0.00 0.00 67 1019.0
20260510064304 68 51 0.0 5.0 0.00 0.00 0.00 66 1014.8
20260510064022 69 83 0.0 5.0 0.00 0.00 0.00 66 1019.4
20260510063804 69 90 0.0 21.0 0.00 0.00 0.00 66 1014.6
20260510063519 69 105 0.0 1.0 0.00 0.00 0.00 66 1019.4
20260510063304 69 91 0.0 21.0 0.00 0.00 0.00 66 1014.7
20260510063017 69 6 0.0 3.0 0.00 0.00 0.00 66 1019.7
20260510062804 69 86 3.0 24.0 0.00 0.00 0.00 66 1014.7
20260510062512 69 16 0.0 1.0 0.00 0.00 0.00 66 1019.2
20260510062307 69 66 0.0 24.0 0.00 0.00 0.00 66 1014.5
20260510062007 69 77 3.0 24.0 0.00 0.00 0.00 66 1019.2
20260510061804 69 72 0.0 17.0 0.00 0.00 0.00 66 1014.4
20260510061505 69 226 0.0 0.0 0.00 0.00 0.00 66 1018.9
20260510061001 69 77 0.0 1.0 0.00 0.00 0.00 65 1019.2
20260510060804 69 62 0.0 13.0 0.00 0.00 0.00 65 1014.4
20260510060458 70 107 0.0 0.0 0.00 0.00 0.00 64 1019.0
20260510060304 70 150 1.0 10.0 0.00 0.00 0.00 64 1014.5
20260510055954 70 106 0.0 0.0 0.00 0.00 0.00 64 1019.4
20260510055804 70 195 1.0 12.0 0.00 0.00 0.00 64 1014.4
20260510055450 70 128 0.0 1.0 0.00 0.00 0.00 63 1019.0
20260510054948 70 107 0.0 0.0 0.00 0.00 0.00 63 1019.0
20260510054804 71 210 0.0 12.0 0.00 0.00 0.00 63 1014.1
20260510054443 71 37 0.0 2.0 0.00 0.00 0.00 62 1018.8
20260510054304 71 104 0.0 8.0 0.00 0.00 0.00 62 1014.2
20260510053938 71 94 2.0 8.0 0.00 0.00 0.00 61 1018.6
20260510053804 71 39 0.0 6.0 0.00 0.00 0.00 61 1013.9
20260510053434 71 18 1.0 2.0 0.00 0.00 0.00 61 1018.5
20260510053304 71 55 0.0 6.0 0.00 0.00 0.00 61 1013.9
20260510052930 72 103 0.0 0.0 0.00 0.00 0.00 61 1018.6
20260510052804 72 233 0.0 6.0 0.00 0.00 0.00 60 1014.1
20260510052426 72 95 0.0 1.0 0.00 0.00 0.00 60 1018.6
20260510051922 72 38 0.0 1.0 0.00 0.00 0.00 60 1018.9
20260510051419 72 231 0.0 0.0 0.00 0.00 0.00 59 1018.7
20260510051304 72 76 0.0 2.0 0.00 0.00 0.00 59 1014.2
20260510050915 72 195 0.0 2.0 0.00 0.00 0.00 58 1018.6
20260510050804 72 125 0.0 1.0 0.00 0.00 0.00 58 1014.1
20260510050412 73 153 0.0 0.0 0.00 0.00 0.00 57 1018.4
20260510050303 73 106 0.0 1.0 0.00 0.00 0.00 57 1014.0
20260510045910 73 134 0.0 0.0 0.00 0.00 0.00 57 1018.5
20260510045804 73 82 0.0 1.0 0.00 0.00 0.00 57 1014.0
20260510045407 73 80 0.0 0.0 0.00 0.00 0.00 57 1018.4
20260510045306 73 79 0.0 0.0 0.00 0.00 0.00 56 1013.7
20260510044903 73 73 0.0 0.0 0.00 0.00 0.00 55 1018.3
20260510044400 73 89 0.0 0.0 0.00 0.00 0.00 54 1018.4
20260510044304 73 163 0.0 0.0 0.00 0.00 0.00 53 1013.8
20260510043857 73 186 0.0 0.0 0.00 0.00 0.00 53 1018.4
20260510043804 73 146 0.0 0.0 0.00 0.00 0.00 53 1013.7
20260510043352 73 201 0.0 0.0 0.00 0.00 0.00 52 1018.3
20260510043304 73 167 0.0 0.0 0.00 0.00 0.00 52 1013.5
20260510042851 74 151 0.0 0.0 0.00 0.00 0.00 51 1018.2
20260510042804 74 110 0.0 0.0 0.00 0.00 0.00 51 1013.4
20260510042346 74 194 0.0 0.0 0.00 0.00 0.00 50 1018.0
20260510042306 74 157 0.0 0.0 0.00 0.00 0.00 50 1013.3
20260510041843 74 135 0.0 0.0 0.00 0.00 0.00 49 1017.8
20260510041804 74 183 0.0 0.0 0.00 0.00 0.00 49 1013.4
20260510041340 74 185 0.0 0.0 0.00 0.00 0.00 47 1017.8
20260510041303 74 185 0.0 0.0 0.00 0.00 0.00 47 1013.5
20260510040837 74 209 0.0 0.0 0.00 0.00 0.00 46 1018.2
20260510040804 74 204 0.0 2.0 0.00 0.00 0.00 46 1013.4
20260510040334 75 212 0.0 0.0 0.00 0.00 0.00 45 1017.9
20260510040304 75 195 0.0 2.0 0.00 0.00 0.00 44 1013.4
20260510035829 75 113 0.0 0.0 0.00 0.00 0.00 43 1017.8
20260510035326 76 141 0.0 0.0 0.00 0.00 0.00 39 1017.7
20260510035306 76 129 0.0 16.0 0.00 0.00 0.00 39 1013.2
20260510034821 77 117 1.0 3.0 0.00 0.00 0.00 34 1017.6
20260510034804 77 133 0.0 16.0 0.00 0.00 0.00 33 1013.1
20260510034320 78 123 5.0 16.0 0.00 0.00 0.00 28 1017.4
20260510033816 78 110 0.0 0.0 0.00 0.00 0.00 24 1017.5
20260510033804 79 98 0.0 5.0 0.00 0.00 0.00 23 1012.9
20260510033313 79 154 0.0 0.0 0.00 0.00 0.00 22 1017.4
20260510033304 79 85 0.0 5.0 0.00 0.00 0.00 22 1012.8
20260510032809 79 71 0.0 3.0 0.00 0.00 0.00 22 1017.1
20260510032306 79 97 0.0 0.0 0.00 0.00 0.00 21 1012.8
20260510031804 79 110 0.0 0.0 0.00 0.00 0.00 20 1012.6
20260510031801 79 105 0.0 0.0 0.00 0.00 0.00 20 1017.1
20260510031304 80 181 0.0 0.0 0.00 0.00 0.00 19 1012.8
20260510031257 80 199 0.0 0.0 0.00 0.00 0.00 19 1017.4
20260510030803 80 188 0.0 0.0 0.00 0.00 0.00 19 1012.5
20260510030756 80 185 0.0 0.0 0.00 0.00 0.00 19 1016.9
20260510030303 82 185 0.0 9.0 0.00 0.00 0.00 18 1012.4
20260510030254 82 196 0.0 0.0 0.00 0.00 0.00 18 1016.8
20260510025804 82 165 0.0 12.0 0.00 0.00 0.00 17 1012.3
20260510025751 82 176 0.0 0.0 0.00 0.00 0.00 17 1016.7
20260510025306 82 203 0.0 12.0 0.00 0.00 0.00 17 1012.2
20260510025249 82 212 0.0 0.0 0.00 0.00 0.00 17 1016.6
20260510024804 79 143 0.0 0.0 0.00 0.00 0.00 19 1012.2
20260510024745 79 144 0.0 0.0 0.00 0.00 0.00 19 1016.5
20260510024304 80 201 0.0 0.0 0.00 0.00 0.00 19 1011.8
20260510024242 80 200 0.0 0.0 0.00 0.00 0.00 19 1016.0
20260510023803 81 197 0.0 0.0 0.00 0.00 0.00 18 1011.7
20260510023738 81 195 0.0 0.0 0.00 0.00 0.00 18 1016.1
20260510023303 80 85 0.0 0.0 0.00 0.00 0.00 18 1011.6
20260510023235 80 97 0.0 0.0 0.00 0.00 0.00 18 1016.0
20260510022732 79 132 0.0 0.0 0.00 0.00 0.00 19 1015.7
20260510022231 78 184 0.0 0.0 0.00 0.00 0.00 21 1015.9
20260510021804 77 178 0.0 0.0 0.00 0.00 0.00 21 1011.3
20260510021726 77 181 0.0 0.0 0.00 0.00 0.00 21 1015.6
20260510021304 78 201 0.0 0.0 0.00 0.00 0.00 21 1010.8
20260510021224 78 200 0.0 0.0 0.00 0.00 0.00 21 1015.0
20260510020803 79 194 0.0 0.0 0.00 0.00 0.00 20 1010.9
20260510020719 79 197 0.0 0.0 0.00 0.00 0.00 20 1015.1
20260510020303 79 199 0.0 0.0 0.00 0.00 0.00 19 1010.6
20260510020220 79 200 0.0 0.0 0.00 0.00 0.00 19 1014.8
20260510015804 80 198 0.0 0.0 0.00 0.00 0.00 19 1010.6
20260510015716 80 201 0.0 0.0 0.00 0.00 0.00 19 1014.8
20260510015306 80 193 0.0 0.0 0.00 0.00 0.00 18 1010.7
20260510015212 80 191 0.0 0.0 0.00 0.00 0.00 18 1014.9
20260510014804 81 197 0.0 0.0 0.00 0.00 0.00 18 1010.3
20260510014707 81 188 0.0 0.0 0.00 0.00 0.00 19 1014.6
20260510014304 81 194 0.0 0.0 0.00 0.00 0.00 18 1010.5
20260510014205 81 189 0.0 0.0 0.00 0.00 0.00 18 1014.5
20260510013700 82 192 0.0 0.0 0.00 0.00 0.00 17 1014.6
20260510013304 83 200 0.0 0.0 0.00 0.00 0.00 17 1010.4
20260510013156 84 208 0.0 0.0 0.00 0.00 0.00 17 1014.6
20260510012804 84 192 0.0 0.0 0.00 0.00 0.00 16 1010.1
20260510012655 84 196 0.0 0.0 0.00 0.00 0.00 16 1014.4
20260510012306 84 171 0.0 0.0 0.00 0.00 0.00 16 1010.2
20260510012151 84 115 0.0 0.0 0.00 0.00 0.00 16 1014.1
20260510011804 84 119 0.0 0.0 0.00 0.00 0.00 16 1010.1
20260510011646 84 186 0.0 0.0 0.00 0.00 0.00 16 1014.4
20260510011303 85 199 0.0 0.0 0.00 0.00 0.00 17 1010.0
20260510011142 85 196 0.0 0.0 0.00 0.00 0.00 16 1014.1
20260510010803 85 176 0.0 0.0 0.00 0.00 0.00 15 1010.1
20260510010638 85 222 0.0 0.0 0.00 0.00 0.00 16 1014.2
20260510010304 86 189 0.0 0.0 0.00 0.00 0.00 16 1010.2
20260510010136 86 197 0.0 0.0 0.00 0.00 0.00 15 1014.1
20260510005803 86 120 0.0 0.0 0.00 0.00 0.00 15 1010.0
20260510005631 86 104 0.0 0.0 0.00 0.00 0.00 15 1014.0
20260510005306 87 42 0.0 0.0 0.00 0.00 0.00 15 1009.9
20260510005129 87 51 0.0 0.0 0.00 0.00 0.00 15 1014.0
20260510004804 87 177 0.0 0.0 0.00 0.00 0.00 14 1010.0
20260510004627 87 75 0.0 0.0 0.00 0.00 0.00 14 1014.1
20260510004304 87 135 0.0 2.0 0.00 0.00 0.00 14 1009.8
20260510004125 87 195 0.0 0.0 0.00 0.00 0.00 14 1014.1
20260510003803 87 172 0.0 2.0 0.00 0.00 0.00 13 1009.9
20260510003621 87 90 0.0 0.0 0.00 0.00 0.00 14 1013.9
20260510003304 88 185 0.0 0.0 0.00 0.00 0.00 14 1009.9
20260510003117 88 212 0.0 0.0 0.00 0.00 0.00 13 1014.0
20260510002804 88 102 0.0 0.0 0.00 0.00 0.00 14 1010.0
20260510002612 88 136 0.0 0.0 0.00 0.00 0.00 14 1014.2
20260510002306 88 130 0.0 0.0 0.00 0.00 0.00 13 1010.2
20260510002109 88 289 0.0 0.0 0.00 0.00 0.00 13 1014.1
20260510001804 89 86 0.0 0.0 0.00 0.00 0.00 13 1010.3
20260510001606 89 96 0.0 0.0 0.00 0.00 0.00 13 1014.4
20260510001304 90 203 0.0 0.0 0.00 0.00 0.00 13 1010.1
20260510001105 90 87 0.0 0.0 0.00 0.00 0.00 12 1014.2
20260510000804 92 171 0.0 0.0 0.00 0.00 0.00 12 1010.3
20260510000605 92 214 0.0 0.0 0.00 0.00 0.00 12 1014.1
20260510000305 92 210 0.0 0.0 0.00 0.00 0.00 12 1010.1
20260509235804 92 222 0.0 0.0 0.00 0.00 0.00 11 1010.2
20260509235558 92 227 0.0 0.0 0.00 0.00 0.00 12 1014.4
20260509235306 92 219 0.0 0.0 0.00 0.00 0.00 11 1010.3
20260509235055 91 228 0.0 0.0 0.00 0.00 0.00 12 1014.7
20260509234803 91 191 0.0 0.0 0.00 0.00 0.00 12 1010.3
20260509234551 91 202 0.0 0.0 0.00 0.00 0.00 12 1014.4
20260509234049 91 207 0.0 0.0 0.00 0.00 0.00 13 1014.5
20260509233804 91 215 0.0 3.0 0.00 0.00 0.00 12 1010.2
20260509233547 91 229 0.0 3.0 0.00 0.00 0.00 11 1014.8
20260509233303 91 176 0.0 2.0 0.00 0.00 0.00 13 1010.6
20260509233044 91 218 0.0 0.0 0.00 0.00 0.00 12 1014.4
20260509232540 93 258 0.0 0.0 0.00 0.00 0.00 11 1014.7
20260509232037 92 255 0.0 0.0 0.00 0.00 0.00 12 1014.5
20260509231533 91 231 0.0 0.0 0.00 0.00 0.00 13 1014.7
20260509231032 91 214 0.0 0.0 0.00 0.00 0.00 13 1014.7
20260509230528 90 218 0.0 0.0 0.00 0.00 0.00 11 1014.8
20260509230304 91 332 0.0 9.0 0.00 0.00 0.00 11 1010.5
20260509230025 92 322 0.0 1.0 0.00 0.00 0.00 11 1014.8
20260509225804 92 264 0.0 9.0 0.00 0.00 0.00 12 1010.7
20260509225520 92 297 0.0 3.0 0.00 0.00 0.00 11 1014.8
20260509225306 92 266 1.0 10.0 0.00 0.00 0.00 11 1010.6
20260509225016 92 296 0.0 5.0 0.00 0.00 0.00 11 1014.9
20260509224804 92 248 0.0 10.0 0.00 0.00 0.00 11 1010.5
20260509224512 91 231 0.0 2.0 0.00 0.00 0.00 12 1014.9
20260509224304 92 330 1.0 10.0 0.00 0.00 0.00 11 1010.6
20260509224009 93 291 0.0 8.0 0.00 0.00 0.00 11 1014.8
20260509223804 93 283 1.0 5.0 0.00 0.00 0.00 11 1010.5
20260509223506 93 98 0.0 1.0 0.00 0.00 0.00 11 1014.6
20260509223304 92 148 0.0 10.0 0.00 0.00 0.00 11 1010.8
20260509223004 92 304 0.0 5.0 0.00 0.00 0.00 10 1014.9
20260509222459 92 155 0.0 3.0 0.00 0.00 0.00 12 1014.9
20260509222307 92 357 0.0 15.0 0.00 0.00 0.00 11 1010.9
20260509221955 92 275 1.0 11.0 0.00 0.00 0.00 11 1014.9
20260509221803 91 318 2.0 15.0 0.00 0.00 0.00 11 1010.8
20260509221451 92 358 3.0 13.0 0.00 0.00 0.00 11 1014.8
20260509221303 92 276 2.0 12.0 0.00 0.00 0.00 12 1010.8
20260509220947 92 303 0.0 6.0 0.00 0.00 0.00 13 1015.0
20260509220804 92 287 0.0 15.0 0.00 0.00 0.00 12 1010.8
20260509220443 92 342 1.0 2.0 0.00 0.00 0.00 12 1015.0
20260509220303 92 270 1.0 23.0 0.00 0.00 0.00 12 1010.8
20260509215939 92 291 1.0 3.0 0.00 0.00 0.00 12 1014.9
20260509215803 91 224 1.0 25.0 0.00 0.00 0.00 13 1010.7
20260509215435 91 265 1.0 8.0 0.00 0.00 0.00 13 1015.0
20260509215306 91 331 2.0 25.0 0.00 0.00 0.00 13 1010.9
20260509214933 92 74 5.0 25.0 0.00 0.00 0.00 13 1014.8
20260509214430 92 304 0.0 14.0 0.00 0.00 0.00 13 1014.9
20260509214304 92 259 0.0 16.0 0.00 0.00 0.00 13 1010.9
20260509213926 92 268 0.0 5.0 0.00 0.00 0.00 14 1015.1
20260509213804 91 202 0.0 32.0 0.00 0.00 0.00 13 1011.0
20260509213422 92 305 2.0 14.0 0.00 0.00 0.00 12 1015.4
20260509213304 92 268 2.0 32.0 0.00 0.00 0.00 14 1011.0
20260509212920 91 160 0.0 6.0 0.00 0.00 0.00 13 1015.2
20260509212804 92 289 2.0 32.0 0.00 0.00 0.00 13 1011.0
20260509212417 92 223 0.0 5.0 0.00 0.00 0.00 15 1015.2
20260509212306 92 305 0.0 18.0 0.00 0.00 0.00 14 1011.1
20260509211913 92 280 2.0 7.0 0.00 0.00 0.00 15 1015.6
20260509211803 92 236 0.0 20.0 0.00 0.00 0.00 14 1011.3
20260509211409 91 297 1.0 5.0 0.00 0.00 0.00 13 1015.6
20260509210906 92 192 5.0 17.0 0.00 0.00 0.00 13 1015.5
20260509210804 92 306 2.0 20.0 0.00 0.00 0.00 13 1011.4
20260509210403 92 192 0.0 3.0 0.00 0.00 0.00 16 1015.8
20260509205858 91 219 0.0 5.0 0.00 0.00 0.00 15 1015.8
20260509205804 91 290 2.0 18.0 0.00 0.00 0.00 14 1011.6
20260509205352 92 336 0.0 18.0 0.00 0.00 0.00 15 1015.8
20260509205307 92 266 3.0 18.0 0.00 0.00 0.00 14 1011.5
20260509204849 91 310 0.0 0.0 0.00 0.00 0.00 15 1015.8
20260509204804 91 236 0.0 17.0 0.00 0.00 0.00 14 1011.6
20260509204345 91 318 7.0 17.0 0.00 0.00 0.00 14 1015.9
20260509204304 91 300 3.0 16.0 0.00 0.00 0.00 15 1011.8
20260509203842 91 232 0.0 13.0 0.00 0.00 0.00 16 1015.9
20260509203804 90 276 3.0 14.0 0.00 0.00 0.00 17 1011.7
20260509203338 89 218 3.0 10.0 0.00 0.00 0.00 18 1016.3
20260509203303 89 285 0.0 22.0 0.00 0.00 0.00 19 1011.7
20260509202835 91 123 0.0 2.0 0.00 0.00 0.00 20 1016.4
20260509202803 91 260 2.0 22.0 0.00 0.00 0.00 18 1011.9
20260509202331 91 256 1.0 2.0 0.00 0.00 0.00 17 1015.9
20260509202306 91 313 1.0 15.0 0.00 0.00 0.00 17 1011.7
20260509201831 91 318 0.0 15.0 0.00 0.00 0.00 17 1016.3
20260509201803 91 285 1.0 9.0 0.00 0.00 0.00 18 1011.7
20260509201327 90 248 0.0 1.0 0.00 0.00 0.00 19 1016.3
20260509201304 90 258 0.0 13.0 0.00 0.00 0.00 19 1011.9
20260509200824 90 289 1.0 9.0 0.00 0.00 0.00 18 1016.4
20260509200803 90 320 2.0 13.0 0.00 0.00 0.00 18 1011.9
20260509200320 90 255 0.0 6.0 0.00 0.00 0.00 18 1016.4
20260509200304 90 322 1.0 12.0 0.00 0.00 0.00 18 1012.0
20260509195816 90 296 0.0 1.0 0.00 0.00 0.00 20 1016.3
20260509195804 90 310 0.0 17.0 0.00 0.00 0.00 20 1012.1
20260509195316 90 236 0.0 9.0 0.00 0.00 0.00 20 1016.6
20260509195306 90 289 1.0 17.0 0.00 0.00 0.00 19 1012.0
20260509194816 89 297 1.0 17.0 0.00 0.00 0.00 19 1016.3
20260509194313 89 240 0.0 0.0 0.00 0.00 0.00 20 1016.7
20260509194304 89 230 0.0 9.0 0.00 0.00 0.00 22 1012.3
20260509193809 89 6 3.0 9.0 0.00 0.00 0.00 20 1016.8
20260509193804 89 3 1.0 10.0 0.00 0.00 0.00 21 1012.4
20260509193309 89 343 0.0 3.0 0.00 0.00 0.00 20 1016.7
20260509193304 89 298 0.0 10.0 0.00 0.00 0.00 20 1012.3
20260509192806 88 239 1.0 8.0 0.00 0.00 0.00 21 1016.8
20260509192804 88 212 1.0 8.0 0.00 0.00 0.00 21 1012.5
20260509192305 88 238 0.0 8.0 0.00 0.00 0.00 22 1017.0
20260509191804 88 238 0.0 16.0 0.00 0.00 0.00 22 1012.6
20260509191756 88 230 0.0 7.0 0.00 0.00 0.00 22 1016.9
20260509191304 88 335 2.0 13.0 0.00 0.00 0.00 22 1012.7
20260509191253 88 311 2.0 11.0 0.00 0.00 0.00 22 1017.1
20260509190749 88 211 0.0 0.0 0.00 0.00 0.00 23 1017.3
20260509190304 88 225 3.0 21.0 0.00 0.00 0.00 21 1013.1
20260509190247 87 243 4.0 13.0 0.00 0.00 0.00 21 1017.6
20260509185804 87 309 3.0 13.0 0.00 0.00 0.00 22 1012.8
20260509185744 87 314 0.0 11.0 0.00 0.00 0.00 22 1017.3
20260509185306 87 275 0.0 20.0 0.00 0.00 0.00 22 1013.0
20260509185240 87 306 0.0 9.0 0.00 0.00 0.00 21 1017.5
20260509184805 87 228 0.0 20.0 0.00 0.00 0.00 22 1013.2
20260509184738 87 215 0.0 3.0 0.00 0.00 0.00 22 1017.7
20260509184304 87 299 2.0 20.0 0.00 0.00 0.00 23 1013.3
20260509184235 87 305 7.0 20.0 0.00 0.00 0.00 22 1017.8
20260509183804 86 242 0.0 24.0 0.00 0.00 0.00 23 1013.1
20260509183731 86 261 0.0 0.0 0.00 0.00 0.00 23 1017.4
20260509183304 87 197 1.0 24.0 0.00 0.00 0.00 22 1013.4
20260509183226 87 191 0.0 3.0 0.00 0.00 0.00 22 1017.8
20260509182804 87 275 1.0 16.0 0.00 0.00 0.00 23 1013.5
20260509182722 87 281 0.0 7.0 0.00 0.00 0.00 23 1018.0
20260509182306 86 235 1.0 18.0 0.00 0.00 0.00 23 1013.4
20260509182220 86 269 0.0 7.0 0.00 0.00 0.00 23 1017.8
20260509181804 86 108 0.0 18.0 0.00 0.00 0.00 22 1013.6
20260509181717 86 105 0.0 3.0 0.00 0.00 0.00 23 1018.2
20260509181304 86 233 4.0 18.0 0.00 0.00 0.00 23 1013.6
20260509181214 86 215 1.0 18.0 0.00 0.00 0.00 23 1018.2
20260509180804 86 133 1.0 15.0 0.00 0.00 0.00 23 1013.7
20260509180711 86 139 0.0 6.0 0.00 0.00 0.00 23 1018.2
20260509180207 85 240 0.0 10.0 0.00 0.00 0.00 24 1018.3
20260509175804 85 198 1.0 15.0 0.00 0.00 0.00 24 1014.2
20260509175704 85 253 1.0 15.0 0.00 0.00 0.00 23 1018.5
20260509175306 85 183 0.0 10.0 0.00 0.00 0.00 25 1013.9
20260509175201 85 155 0.0 0.0 0.00 0.00 0.00 25 1018.4
20260509174804 85 232 1.0 14.0 0.00 0.00 0.00 24 1013.8
20260509174656 86 231 1.0 6.0 0.00 0.00 0.00 24 1018.5
20260509174304 84 204 0.0 14.0 0.00 0.00 0.00 25 1013.9
20260509174157 84 211 0.0 10.0 0.00 0.00 0.00 26 1018.4
20260509173804 85 183 3.0 14.0 0.00 0.00 0.00 24 1014.1
20260509173653 85 258 2.0 10.0 0.00 0.00 0.00 24 1018.8
20260509173304 84 241 0.0 13.0 0.00 0.00 0.00 26 1014.0
20260509173149 84 235 0.0 6.0 0.00 0.00 0.00 25 1018.8
20260509172645 84 215 2.0 13.0 0.00 0.00 0.00 26 1018.6
20260509172306 83 203 1.0 18.0 0.00 0.00 0.00 27 1014.3
20260509172142 83 212 0.0 10.0 0.00 0.00 0.00 26 1018.9
20260509171804 82 176 1.0 22.0 0.00 0.00 0.00 30 1014.2
20260509171637 82 106 0.0 6.0 0.00 0.00 0.00 31 1018.7
20260509171304 82 110 3.0 22.0 0.00 0.00 0.00 31 1014.3
20260509171134 82 80 4.0 18.0 0.00 0.00 0.00 31 1018.9
20260509170631 81 145 2.0 9.0 0.00 0.00 0.00 30 1019.2
20260509170304 82 183 1.0 16.0 0.00 0.00 0.00 32 1014.5
20260509170127 82 115 0.0 9.0 0.00 0.00 0.00 31 1019.2
20260509165803 82 210 2.0 21.0 0.00 0.00 0.00 31 1014.7
20260509165625 82 195 4.0 13.0 0.00 0.00 0.00 31 1019.3
20260509165306 81 231 1.0 21.0 0.00 0.00 0.00 31 1014.6
20260509165121 81 134 0.0 15.0 0.00 0.00 0.00 31 1019.2
20260509164804 81 321 3.0 21.0 0.00 0.00 0.00 31 1014.6
20260509164617 81 188 0.0 9.0 0.00 0.00 0.00 32 1019.5
20260509164303 80 194 2.0 23.0 0.00 0.00 0.00 33 1014.8
20260509164113 80 144 1.0 3.0 0.00 0.00 0.00 34 1019.4
20260509163804 79 145 2.0 23.0 0.00 0.00 0.00 33 1014.5
20260509163611 79 152 2.0 10.0 0.00 0.00 0.00 34 1019.2
20260509163303 80 139 5.0 22.0 0.00 0.00 0.00 32 1014.9
20260509163106 79 182 0.0 10.0 0.00 0.00 0.00 34 1019.5
20260509162804 79 209 2.0 17.0 0.00 0.00 0.00 33 1014.8
20260509162604 80 154 0.0 14.0 0.00 0.00 0.00 33 1019.8
20260509162306 80 221 1.0 9.0 0.00 0.00 0.00 33 1014.9
20260509162100 80 217 1.0 7.0 0.00 0.00 0.00 32 1019.5
20260509161803 79 161 0.0 21.0 0.00 0.00 0.00 34 1015.0
20260509161557 78 345 1.0 8.0 0.00 0.00 0.00 34 1019.7
20260509161303 78 215 1.0 21.0 0.00 0.00 0.00 34 1015.1
20260509161056 78 170 0.0 9.0 0.00 0.00 0.00 36 1019.7
20260509160804 77 199 3.0 21.0 0.00 0.00 0.00 35 1015.2
20260509160553 77 147 5.0 17.0 0.00 0.00 0.00 35 1019.8
20260509160304 78 236 4.0 12.0 0.00 0.00 0.00 35 1015.2
20260509160048 78 120 1.0 10.0 0.00 0.00 0.00 35 1019.8
20260509155804 77 225 1.0 12.0 0.00 0.00 0.00 37 1015.2
20260509155544 77 223 1.0 8.0 0.00 0.00 0.00 38 1019.7
20260509155041 77 157 3.0 7.0 0.00 0.00 0.00 37 1019.8
20260509154803 77 130 1.0 10.0 0.00 0.00 0.00 36 1015.3
20260509154537 78 227 1.0 10.0 0.00 0.00 0.00 36 1020.1
20260509154303 77 217 0.0 7.0 0.00 0.00 0.00 37 1015.2
20260509154035 77 189 0.0 0.0 0.00 0.00 0.00 38 1020.1
20260509153803 77 248 0.0 8.0 0.00 0.00 0.00 37 1015.3
20260509153532 77 193 0.0 5.0 0.00 0.00 0.00 37 1020.1
20260509153304 76 93 0.0 8.0 0.00 0.00 0.00 40 1015.5
20260509153028 76 207 0.0 8.0 0.00 0.00 0.00 39 1020.2
20260509152524 75 197 0.0 0.0 0.00 0.00 0.00 42 1020.3
20260509152306 75 166 0.0 7.0 0.00 0.00 0.00 42 1015.6
20260509152021 75 191 0.0 0.0 0.00 0.00 0.00 41 1020.3
20260509151803 75 224 1.0 7.0 0.00 0.00 0.00 41 1015.6
20260509151518 74 227 0.0 0.0 0.00 0.00 0.00 43 1020.1
20260509151304 75 135 0.0 2.0 0.00 0.00 0.00 43 1015.4
20260509151016 74 123 0.0 0.0 0.00 0.00 0.00 43 1020.2
20260509150804 74 201 0.0 8.0 0.00 0.00 0.00 42 1015.6
20260509150513 74 172 0.0 2.0 0.00 0.00 0.00 43 1020.4
20260509150303 73 185 0.0 8.0 0.00 0.00 0.00 44 1015.6
20260509150011 73 109 0.0 0.0 0.00 0.00 0.00 43 1020.3
20260509145507 73 198 0.0 1.0 0.00 0.00 0.00 44 1020.4
20260509145306 72 200 0.0 5.0 0.00 0.00 0.00 45 1015.5
20260509145002 72 218 0.0 0.0 0.00 0.00 0.00 45 1020.5
20260509144804 72 183 0.0 5.0 0.00 0.00 0.00 46 1015.6
20260509144459 72 160 0.0 5.0 0.00 0.00 0.00 46 1020.4
20260509144303 71 121 0.0 0.0 0.00 0.00 0.00 48 1015.7
20260509143956 71 191 0.0 0.0 0.00 0.00 0.00 48 1020.5
20260509143803 71 172 0.0 0.0 0.00 0.00 0.00 49 1015.6
20260509143453 71 213 0.0 0.0 0.00 0.00 0.00 51 1020.4
20260509143304 71 145 0.0 0.0 0.00 0.00 0.00 51 1015.6
20260509142950 71 182 0.0 0.0 0.00 0.00 0.00 52 1020.5
20260509142803 70 137 0.0 0.0 0.00 0.00 0.00 54 1015.8
20260509142446 70 166 0.0 0.0 0.00 0.00 0.00 53 1020.5
20260509142306 70 197 0.0 0.0 0.00 0.00 0.00 53 1015.7
20260509141941 70 197 0.0 0.0 0.00 0.00 0.00 54 1020.6
20260509141804 70 144 0.0 0.0 0.00 0.00 0.00 54 1015.7
20260509141438 70 137 0.0 0.0 0.00 0.00 0.00 55 1020.5
20260509140935 69 190 0.0 0.0 0.00 0.00 0.00 56 1020.8
20260509140804 69 218 0.0 0.0 0.00 0.00 0.00 56 1015.8
20260509140431 69 183 0.0 0.0 0.00 0.00 0.00 57 1020.6
20260509140304 69 185 0.0 0.0 0.00 0.00 0.00 56 1015.9
20260509135930 68 183 0.0 0.0 0.00 0.00 0.00 57 1020.7
20260509135804 69 163 0.0 0.0 0.00 0.00 0.00 56 1015.8
20260509135427 68 181 0.0 0.0 0.00 0.00 0.00 56 1020.8
20260509135306 68 159 0.0 0.0 0.00 0.00 0.00 55 1015.9
20260509134924 68 189 0.0 0.0 0.00 0.00 0.00 57 1020.6
20260509134804 67 181 0.0 0.0 0.00 0.00 0.00 57 1015.8
20260509134421 66 201 0.0 0.0 0.00 0.00 0.00 57 1020.5
20260509134304 66 195 0.0 0.0 0.00 0.00 0.00 57 1015.6
20260509133919 66 234 0.0 0.0 0.00 0.00 0.00 57 1020.3
20260509133803 65 196 0.0 0.0 0.00 0.00 0.00 57 1015.7
20260509133415 66 206 0.0 0.0 0.00 0.00 0.00 57 1020.5
20260509133303 65 189 0.0 0.0 0.00 0.00 0.00 57 1015.9
20260509132914 64 106 0.0 0.0 0.00 0.00 0.00 57 1020.7
20260509132803 64 211 0.0 0.0 0.00 0.00 0.00 56 1015.9
20260509132412 64 200 0.0 0.0 0.00 0.00 0.00 56 1020.7
20260509132306 65 134 0.0 0.0 0.00 0.00 0.00 55 1015.9
20260509131908 64 188 0.0 0.0 0.00 0.00 0.00 56 1020.6
20260509131804 64 182 0.0 0.0 0.00 0.00 0.00 55 1015.8
20260509131405 62 194 0.0 0.0 0.00 0.00 0.00 56 1020.5
20260509130902 61 198 0.0 0.0 0.00 0.00 0.00 57 1020.6
20260509130804 61 159 0.0 0.0 0.00 0.00 0.00 56 1015.8
20260509130357 60 189 0.0 0.0 0.00 0.00 0.00 57 1020.4
20260509130304 60 194 0.0 0.0 0.00 0.00 0.00 56 1015.8
20260509125855 59 195 0.0 0.0 0.00 0.00 0.00 56 1020.5
20260509125804 59 197 0.0 0.0 0.00 0.00 0.00 55 1015.8
20260509125351 59 199 0.0 0.0 0.00 0.00 0.00 56 1020.3
20260509125307 58 202 0.0 0.0 0.00 0.00 0.00 56 1015.7
20260509124847 58 231 0.0 0.0 0.00 0.00 0.00 55 1020.2
20260509124804 57 215 0.0 0.0 0.00 0.00 0.00 55 1015.6
20260509124344 57 197 0.0 0.0 0.00 0.00 0.00 56 1020.1
20260509124303 56 175 0.0 0.0 0.00 0.00 0.00 56 1015.5
20260509123842 55 199 0.0 0.0 0.00 0.00 0.00 56 1020.5
20260509123803 55 187 0.0 0.0 0.00 0.00 0.00 57 1015.6
20260509123339 53 200 0.0 0.0 0.00 0.00 0.00 57 1020.1
20260509123304 53 194 0.0 0.0 0.00 0.00 0.00 57 1015.6
20260509122834 53 198 0.0 0.0 0.00 0.00 0.00 57 1020.3
20260509122803 53 198 0.0 0.0 0.00 0.00 0.00 57 1015.5
20260509122332 53 205 0.0 0.0 0.00 0.00 0.00 56 1020.4
20260509122306 53 209 0.0 0.0 0.00 0.00 0.00 56 1015.4
20260509121829 53 243 0.0 0.0 0.00 0.00 0.00 56 1020.1
20260509121804 53 230 0.0 0.0 0.00 0.00 0.00 56 1015.6
20260509121326 53 223 0.0 0.0 0.00 0.00 0.00 56 1020.5
20260509121304 53 237 0.0 0.0 0.00 0.00 0.00 57 1015.6
20260509120824 52 190 0.0 0.0 0.00 0.00 0.00 57 1020.3
20260509120804 52 208 0.0 0.0 0.00 0.00 0.00 57 1015.6
20260509120321 52 205 0.0 0.0 0.00 0.00 0.00 57 1020.4
20260509120304 52 196 0.0 0.0 0.00 0.00 0.00 57 1015.4
20260509115820 52 198 0.0 0.0 0.00 0.00 0.00 57 1020.1
20260509115804 52 206 0.0 0.0 0.00 0.00 0.00 57 1015.3
20260509115316 52 174 0.0 0.0 0.00 0.00 0.00 57 1020.2
20260509115306 52 201 0.0 0.0 0.00 0.00 0.00 57 1015.4
20260509114814 53 208 0.0 0.0 0.00 0.00 0.00 56 1020.3
20260509114312 53 208 0.0 0.0 0.00 0.00 0.00 57 1019.9
20260509114303 53 218 0.0 0.0 0.00 0.00 0.00 56 1015.4
20260509113812 54 204 0.0 0.0 0.00 0.00 0.00 56 1020.3
20260509113804 54 200 0.0 0.0 0.00 0.00 0.00 56 1015.5
20260509113308 54 225 0.0 0.0 0.00 0.00 0.00 56 1020.4
20260509113303 54 222 0.0 0.0 0.00 0.00 0.00 56 1015.6
20260509112804 54 211 0.0 0.0 0.00 0.00 0.00 56 1019.9
20260509112306 55 226 0.0 0.0 0.00 0.00 0.00 55 1020.2
20260509111804 55 194 0.0 0.0 0.00 0.00 0.00 57 1015.8
20260509111759 55 211 0.0 0.0 0.00 0.00 0.00 57 1020.3
20260509111304 56 202 0.0 0.0 0.00 0.00 0.00 57 1015.5
20260509111255 56 202 0.0 0.0 0.00 0.00 0.00 57 1020.2
20260509110753 55 203 0.0 0.0 0.00 0.00 0.00 57 1020.4
20260509110249 55 195 0.0 0.0 0.00 0.00 0.00 57 1020.3
20260509105804 56 202 0.0 0.0 0.00 0.00 0.00 56 1015.6
20260509105748 56 204 0.0 0.0 0.00 0.00 0.00 56 1020.3
20260509105306 56 206 0.0 0.0 0.00 0.00 0.00 56 1015.8
20260509105245 56 207 0.0 0.0 0.00 0.00 0.00 56 1020.6